Location: Badiola
(43.5833°N, 11.5167°E)
Time: 09:27:24
(UTC+00:00)

Daily predictions for brighter satellites

Satellite Brightness Start Highest point End
(mag) Time Altitude Azimuth Time Altitude Azimuth Time Altitude Azimuth
Aureole 1 Rocket 3.9 19:11:48 10° NNW 19:16:26 70° WSW 19:22:33 10° S
CZ-2C R/B 3.7 19:14:23 10° NNE 19:18:53 70° ESE 19:23:26 10° S
Resurs 1-3 3.7 19:16:41 10° SSE 19:21:02 69° ENE 19:25:25 10° N
STARLINK-1124 4.0 19:17:01 10° NW 19:21:09 60° NNE 19:25:14 10° ESE
Cosmos 676 Rocket 4.1 19:16:11 10° NNW 19:21:29 84° ENE 19:26:47 10° SSE
MetOp-A 4.2 19:16:18 10° SSE 19:21:39 88° ENE 19:27:03 10° NNW
Cosmos 1634 Rocket 4.1 19:16:08 10° N 19:22:28 68° E 19:28:45 10° SSE
STARLINK-1241 3.9 19:18:55 10° WSW 19:23:03 77° NW 19:27:13 10° NE
STARLINK-1122 3.9 19:21:59 10° NW 19:26:07 65° NNE 19:30:14 10° ESE
Cosmos 1300 Rocket 4.1 19:23:31 10° N 19:27:46 42° ENE 19:31:58 10° SSE
STARLINK-1239 4.0 19:23:54 10° WSW 19:28:01 71° NNW 19:32:10 10° NE
Cosmos 2056 Rocket 4.4 19:24:38 10° SW 19:29:37 53° WNW 19:34:39 10° NNE
Aureole 2 Rocket 3.7 19:28:50 10° SSE 19:31:05 18° ESE 19:33:15 10° ENE
STARLINK-1126 3.8 19:27:00 10° NW 19:31:09 70° NNE 19:35:17 10° ESE
STARLINK-1240 4.1 19:28:52 10° WSW 19:32:59 66° NNW 19:37:07 10° NE
Meteor 1-4 Rocket 3.0 19:29:37 10° SSW 19:33:01 60° WNW 19:36:28 10° N
Cosmos 1437 Rocket 3.7 19:29:50 10° SSE 19:33:04 27° E 19:36:20 10° NNE
STARLINK-1082 3.7 19:31:55 10° NW 19:36:05 76° NE 19:40:10 10° ESE
USA 186 4.2 19:34:59 10° SW 19:36:38 15° W 19:38:21 10° NW
STARLINK-1203 4.3 19:33:29 10° WSW 19:37:39 61° NNW 19:41:50 10° NE
STARLINK-1216 4.2 19:33:52 10° WSW 19:37:58 61° NNW 19:42:05 10° NE
Lacrosse 5 1.9 19:32:56 10° NW 19:38:01 88° SW 19:42:55 11° SE
STARLINK-1100 3.7 19:36:53 10° NW 19:41:02 82° NNE 19:44:56 12° ESE
ISS -3.8 19:37:43 10° WNW 19:41:05 81° SW 19:44:06 12° SE
COSMOS 2406 4.1 19:37:10 10° NW 19:42:41 48° WSW 19:48:09 10° S
STARLINK-1237 4.4 19:38:53 10° WSW 19:42:58 57° NNW 19:47:04 10° NE
Cosmos 1975 3.8 19:39:18 10° NNW 19:43:11 46° W 19:47:02 10° SSW
CZ-2C R/B 3.0 19:38:23 10° N 19:44:00 75° WNW 19:49:36 10° SSW
STARLINK-1083 3.6 19:41:53 10° NW 19:46:02 88° NNE 19:49:44 13° SE
Cosmos 1674 Rocket 4.2 19:42:33 10° SSE 19:46:32 36° E 19:50:34 10° NNE
Meteor 2-4 Rocket 3.7 19:41:12 10° S 19:46:34 86° W 19:51:57 10° N
NOSS 2-2 (E) 3.8 19:45:17 10° S 19:48:29 32° ESE 19:51:54 10° NE
EXPRESS MD2 3.0 19:46:59 10° SW 19:49:40 61° SE 19:54:27 10° ENE
STARLINK-1125 3.6 19:46:52 10° NW 19:51:01 86° SW 19:54:31 14° SE
Cosmos 2297 4.0 19:47:49 10° S 19:53:13 46° ESE 19:58:39 10° NE
Cosmos 1943 Rocket 3.5 19:50:21 12° SE 19:53:50 21° E 19:57:51 10° NE
Cosmos 1833 Rocket 3.1 19:48:40 10° NNW 19:54:12 61° WSW 19:59:43 10° S
STARLINK-1109 3.6 19:51:51 10° WNW 19:56:00 79° SW 19:59:18 16° SE
IGS 5A 4.0 19:55:29 14° SE 19:58:44 43° ENE 20:02:41 10° N
Cosmos 1452 Rocket 3.7 19:54:36 10° SSW 19:59:52 80° WNW 20:05:12 10° NNE
Cosmos 332 Rocket 3.8 19:55:16 10° SSW 20:00:10 82° ESE 20:05:06 10° NNE
BREEZE-M DEB 2.7 19:58:36 10° SSW 20:00:38 33° SE 20:03:59 10° ENE
Cosmos 2082 Rocket 2.3 19:55:10 10° NNW 20:00:56 87° WSW 20:06:02 13° SSE
STARLINK-1091 3.7 19:56:49 10° WNW 20:00:56 73° SW 20:04:04 17° SE
Landsat 7 4.2 19:57:48 14° SE 20:01:43 50° ENE 20:06:19 10° N
Intercosmos 24 3.7 20:00:04 10° N 20:03:37 89° ENE 20:07:17 12° S
STARLINK-1072 3.7 20:01:49 10° WNW 20:05:57 67° SW 20:08:52 18° SE
Cosmos 1461 2.8 20:02:35 10° SSW 20:06:41 88° SE 20:11:03 10° NE
Okean 3 4.4 20:04:28 10° SSW 20:08:38 50° WNW 20:12:51 10° N
Cosmos 2369 Rocket 3.5 20:07:22 16° SE 20:09:45 20° E 20:13:46 10° NE
STARLINK-1096 3.8 20:06:49 10° WNW 20:10:55 61° SW 20:13:39 20° SE
SAR-Lupe-2 3.6 20:08:36 10° NNE 20:12:09 58° E 20:15:10 14° S
NOSS 2-2 (C) 3.3 20:09:35 10° SSW 20:13:00 46° ESE 20:16:39 10° NE
STARLINK-1079 3.9 20:11:49 10° WNW 20:15:52 56° SW 20:18:26 21° SSE
ATLAS 2AS CENTAUR R/B 4.2 20:13:12 16° SE 20:16:40 21° ESE 20:22:15 10° ENE
SPOT 5 3.8 20:14:18 17° SE 20:17:50 40° ENE 20:22:49 10° N
STARLINK-1144 4.5 20:14:07 10° NW 20:18:07 45° NNE 20:21:28 14° E
SL-4 R/B 3.4 20:16:17 10° WNW 20:18:28 18° WSW 20:20:30 10° SSW
STARLINK-1116 4.0 20:16:49 10° WNW 20:20:50 51° SW 20:23:13 22° SSE
ERS-1 Rocket 3.4 20:19:40 19° SE 20:23:01 50° ENE 20:27:52 10° N
STARLINK-1103 4.4 20:19:04 10° NW 20:23:06 48° NNE 20:26:14 16° E
Cosmos 1066 Rocket 4.0 20:22:28 11° S 20:27:44 73° E 20:33:05 10° NNE
STARLINK-1101 4.2 20:24:02 10° NW 20:28:06 51° NNE 20:31:01 18° E
USA 245 2.7 20:27:56 24° S 20:29:32 67° WSW 20:32:08 10° NNW
STARLINK-1094 4.3 20:26:50 10° WNW 20:30:45 42° SW 20:32:47 24° SSE
USA 238 DEB 4.3 20:25:45 10° NNW 20:32:47 52° NE 20:38:26 17° ESE
USA 238 4.4 20:25:51 10° NNW 20:32:53 52° NE 20:38:33 17° ESE
Resurs 01 Rocket 3.2 20:29:08 10° SSW 20:33:03 30° W 20:37:01 10° NNW
STARLINK-1102 4.1 20:29:01 10° NW 20:33:06 55° NNE 20:35:48 20° ESE
Cosmos 2278 Rocket 4.4 20:28:22 10° WSW 20:33:13 28° NW 20:38:06 10° N
Nadezhda 4 Rocket 3.9 20:28:28 12° S 20:34:09 75° E 20:40:16 10° N
Okean 1 Rocket 3.0 20:30:48 10° N 20:35:17 79° E 20:37:54 24° SSE
Cosmos 1805 3.7 20:31:44 10° N 20:35:32 45° ENE 20:37:07 29° SE
STARLINK-1117 4.4 20:31:50 10° WNW 20:35:42 38° SW 20:37:34 24° S
Cosmos 1741 Rocket 4.4 20:30:53 10° NNW 20:36:00 59° WSW 20:39:48 18° S
GPS 2-04 Rocket1 3.9 20:33:21 10° WSW 20:35:57 21° S 20:35:57 21° S
STARLINK-1111 4.0 20:33:59 10° NW 20:38:04 59° NNE 20:40:34 22° ESE
BREEZE-M DEB (TANK) 4.5 20:29:38 10° SSW 20:38:15 23° SSE 20:39:13 22° SE
Cosmos 1455 Rocket 4.4 20:37:08 10° NNE 20:40:48 26° ENE 20:42:18 21° ESE
SL-8 R/B 3.8 20:38:14 10° WNW 20:43:03 76° NNE 20:46:16 21° ESE
STARLINK-1073 3.9 20:38:57 10° NW 20:43:04 63° NNE 20:45:22 25° ESE
Terra 2.2 20:44:21 27° SE 20:46:41 50° ENE 20:51:18 10° N
Cosmos 1110 Rocket 4.1 20:41:37 10° SSW 20:46:49 78° WNW 20:52:01 10° NNE
SL-4 R/B 2.7 20:42:30 10° SSW 20:46:54 40° SE 20:51:26 10° ENE
ATLAS 3B CENTAUR R/B 3.9 20:36:44 10° WSW 20:47:54 29° S 20:50:57 23° SSE
Spot 2 Rocket 4.1 20:44:03 16° S 20:47:56 51° W 20:52:52 10° NNW
STARLINK-1121 3.8 20:43:55 10° NW 20:48:03 68° NNE 20:50:09 28° ESE
SPOT 1/Viking Rocket 3.7 20:45:17 21° S 20:48:46 71° WSW 20:53:56 10° NNW
Cosmos 1842 4.0 20:48:52 31° ESE 20:49:38 34° E 20:53:11 10° NNE
CARTOSAT-1 3.5 20:47:49 30° SSE 20:49:57 83° ENE 20:54:17 10° N
Abrixas rocket 1.7 20:48:32 10° WNW 20:51:29 76° SSW 20:51:50 63° SE
STARLINK-1106 3.7 20:48:55 10° NW 20:53:04 74° NE 20:54:57 31° ESE
STARLINK-1112 3.6 20:53:52 10° NW 20:58:01 79° NE 20:59:42 35° ESE
STARLINK-1128 3.5 20:58:50 10° NW 21:03:00 86° NE 21:04:28 39° ESE
Cosmos 1331 Rocket 4.4 20:58:32 10° SSW 21:03:38 62° WNW 21:08:47 10° NNE
STARLINK-1113 3.5 21:03:49 10° NW 21:07:58 88° SW 21:09:15 44° SE
Cosmos 1733 3.1 21:04:50 10° N 21:08:39 76° E 21:09:32 50° SSE
COSMOS 2455 4.0 21:09:44 22° ESE 21:10:06 23° ESE 21:14:39 10° ENE
Cosmos 1378 3.8 21:09:41 24° SW 21:11:36 51° W 21:15:14 10° N
STARLINK-1119 3.5 21:08:50 10° WNW 21:12:58 82° SW 21:14:04 48° SE
Cosmos 1302 Rocket 3.9 21:10:13 22° SSW 21:13:41 85° ESE 21:19:01 10° NNE
Cosmos 1271 Rocket 3.8 21:14:23 30° E 21:14:23 30° E 21:17:47 10° NNE
Cosmos 1242 Rocket 3.0 21:15:26 44° E 21:15:30 44° E 21:19:02 10° NNE
Cosmos 1486 Rocket 4.4 21:10:57 10° NNW 21:16:10 54° ENE 21:18:13 34° SE
ISS -1.1 21:16:25 10° WSW 21:17:02 11° SW 21:17:02 11° SW
Cosmos 1544 Rocket 4.1 21:13:32 10° N 21:17:42 45° ENE 21:18:39 38° ESE
STARLINK-1114 3.5 21:13:47 10° WNW 21:17:56 75° SW 21:18:49 52° SSE
MTI 3.5 21:15:46 10° NNE 21:18:55 85° ESE 21:18:58 84° SE
STARLINK-60 3.9 21:20:10 36° ENE 21:20:10 36° ENE 21:22:13 10° ENE
Cosmos 1092 Rocket 4.0 21:15:30 22° SSW 21:19:41 79° W 21:25:52 10° N
Lacrosse 5 3.9 21:17:26 10° W 21:20:19 15° WSW 21:22:07 13° SW
STARLINK-1130 (DARKSAT) 3.6 21:18:47 10° WNW 21:22:55 69° SW 21:23:37 56° SSE
Cosmos 1707 3.8 21:24:35 30° E 21:24:35 30° E 21:27:53 10° NNE
CENTAUR R/B 3.4 21:17:30 10° NNW 21:25:31 65° NE 21:31:07 24° SE
STARLINK-1084 3.6 21:23:47 10° WNW 21:27:53 63° SW 21:28:24 57° S
ATLAS 3B R/B 3.9 21:22:17 10° NNW 21:28:26 35° NE 21:33:56 13° E
SL-27 R/B 2.3 21:25:40 10° NNW 21:29:17 83° ENE 21:29:28 78° SE
NOSS 3-2 (C) 4.2 21:23:10 10° NW 21:30:45 74° NE 21:35:37 28° SE
Cosmos 1766 4.2 21:27:48 10° NNW 21:31:35 42° W 21:32:47 32° SW
Cosmos 1726 3.9 21:29:53 10° NNE 21:32:44 20° ENE 21:32:50 20° ENE
STARLINK-1098 3.7 21:28:46 10° WNW 21:32:51 57° SW 21:33:11 55° SSW
Cosmos 1867 4.4 21:30:17 10° NNW 21:35:29 42° NE 21:38:06 26° ESE
COSMOS 2487 4.5 21:34:17 10° NNE 21:36:45 18° ENE 21:37:03 18° ENE
Cosmos 1943 Rocket 2.7 21:31:47 11° SW 21:37:05 59° WNW 21:42:37 10° NNE
Cosmos 1992 Rocket 4.1 21:36:08 45° SSE 21:37:15 54° ESE 21:42:20 10° NNE
STARLINK-1123 3.8 21:33:45 10° WNW 21:37:48 52° SW 21:37:56 52° SSW
NOSS 3-4 (A) 3.4 21:36:32 37° S 21:38:37 56° ESE 21:44:41 10° NE
NOSS 3-4 (C) 3.4 21:36:40 38° S 21:38:42 55° ESE 21:44:47 10° NE
STARLINK-1097 4.0 21:38:47 10° WNW 21:42:45 48° SW 21:42:45 48° SW
SeaSat 1 2.7 21:39:19 10° NE 21:44:05 47° ESE 21:44:35 45° SE
EO 1 Del DPAF 3.6 21:41:04 10° NNE 21:44:29 49° E 21:44:29 49° E
Cosmos 1975 Rocket 4.0 21:44:36 26° SW 21:46:36 44° WNW 21:50:50 10° N
STARLINK-1099 4.2 21:43:47 10° WNW 21:47:31 43° SW 21:47:31 43° SW
Cosmos 292 Rocket 3.9 21:48:20 36° SW 21:50:18 72° WNW 21:55:10 10° NNE
BREEZE-M DEB (TANK) 4.1 21:37:52 10° WSW 21:51:36 61° NNW 21:55:21 10° ENE
STARLINK-1247 4.5 21:48:53 10° NW 21:51:42 30° NNE 21:52:06 29° NE
Meteor 2-10 4.3 21:47:41 10° N 21:52:37 52° ENE 21:53:43 43° ESE
STARLINK-1104 4.4 21:48:47 10° WNW 21:52:18 39° WSW 21:52:18 39° WSW
STARLINK-1226 4.4 21:50:13 10° NW 21:53:03 31° NNE 21:53:24 30° NE
BREEZE-M DEB (TANK) 4.2 21:49:31 10° WNW 21:53:03 40° N 21:56:53 10° E
Cosmos 2369 Rocket 2.6 21:49:04 18° SW 21:53:15 61° WNW 21:58:51 10° NNE
STARLINK-1215 4.4 21:51:07 10° NW 21:53:58 31° NNE 21:54:16 30° NE
STARLINK-1217 4.4 21:52:55 10° NW 21:55:47 32° NNE 21:56:00 32° NE
S3M 4.0 21:49:56 10° N 21:56:06 67° E 21:58:11 42° SSE
STARLINK-1229 4.4 21:53:50 10° NW 21:56:42 32° NNE 21:56:54 32° NE
STARLINK-1270 4.4 21:54:43 10° NW 21:57:36 33° NNE 21:57:46 33° NNE
ATLAS CENTAUR R/B 1.6 21:59:35 56° E 21:59:35 56° E 22:03:21 10° NE
STARLINK-1189 4.3 21:56:30 10° NW 21:59:24 34° NNE 21:59:29 34° NNE
Aureole 3 Rocket 4.5 21:53:23 10° NNW 21:59:50 79° W 22:03:54 34° S
STARLINK-1188 4.3 21:57:24 10° NW 22:00:19 34° NNE 22:00:22 34° NNE
STARLINK-1187 4.2 21:58:29 10° NW 22:01:14 37° NNE 22:01:14 37° NNE
Cosmos 1340 Rocket 3.5 21:58:31 10° N 22:02:25 43° ENE 22:02:31 43° E
STARLINK-1191 4.3 21:59:51 10° NW 22:02:39 35° NNE 22:02:39 35° NNE
Cosmos 1025 Rocket 2.8 22:02:58 72° SSW 22:03:23 86° W 22:07:43 10° N
STARLINK-1221 4.3 22:00:48 10° NW 22:03:34 35° NNE 22:03:34 35° NNE
STARLINK-1222 4.3 22:01:38 10° NW 22:04:23 36° NNE 22:04:23 36° NNE
STARLINK-1214 4.3 22:02:31 10° NW 22:05:15 36° NNE 22:05:15 36° NNE
Thor Agena Rocket 3.5 22:00:20 10° NNE 22:05:39 88° WNW 22:07:12 48° SSW
ATLAS 2AS CENTAUR R/B 3.0 22:00:30 18° SSW 22:06:44 89° SE 22:14:45 10° NE
Cosmos 1656 Rocket 3.6 22:04:50 42° SSW 22:06:49 89° ESE 22:12:26 10° NNE
BREEZE M DEB (TANK) 4.2 22:05:41 10° WNW 22:08:07 23° NNW 22:08:33 22° N
Cosmos 1553 Rocket 4.0 22:03:18 10° NNW 22:09:34 73° W 22:11:43 42° SSW
Cosmos 1953 2.4 22:06:48 10° N 22:10:41 67° ENE 22:10:41 67° ENE
BREEZE-M DEB (TANK) 3.6 21:59:34 10° WNW 22:10:48 89° SW 22:11:56 51° ESE
STARLINK-1228 3.8 22:07:55 10° NW 22:11:08 55° N 22:11:08 55° N
Cosmos 1470 3.3 22:08:04 10° NNW 22:11:48 47° W 22:11:51 47° W
NOSS 3-2 (A) 4.5 22:04:35 10° NW 22:11:58 50° WSW 22:15:11 34° SSW
Cosmos 2292 Rocket 3.9 22:13:23 41° ENE 22:13:23 41° ENE 22:15:54 10° NNE
STARLINK-1235 4.1 22:10:38 10° NW 22:13:12 44° NNW 22:13:12 44° NNW
Cosmos 968 Rocket 3.6 22:11:36 10° NNW 22:16:39 57° WSW 22:17:31 50° SW
Cosmos 1655 Rocket 3.9 22:15:01 44° S 22:17:11 87° W 22:23:29 10° N
SL-4 R/B 4.2 22:20:18 12° N 22:20:18 12° N 22:20:29 10° N
ATLAS 5 CENTAUR R/B 1.9 22:21:46 62° WNW 22:21:57 64° NW 22:24:21 10° NNE
Terra 3.8 22:23:15 16° WSW 22:24:42 18° W 22:28:00 10° NW
Cosmos 1758 4.2 22:21:28 10° NNW 22:25:17 40° W 22:25:25 40° W
SL-4 R/B 3.0 22:21:51 10° WSW 22:26:35 55° NNW 22:31:21 10° NE
Cosmos 2228 3.8 22:24:29 10° N 22:28:30 40° ENE 22:28:36 40° E
Meteor 2-15 4.4 22:23:17 10° N 22:29:26 74° E 22:31:06 50° SSE
In-Cosmos 22 3.9 22:30:05 60° S 22:31:05 90° ESE 22:36:24 10° N
Cosmos 2266 Rocket 3.8 22:33:43 50° SSW 22:35:28 86° W 22:41:33 10° N
Cosmos 1503 Rocket 4.3 22:31:37 10° NNW 22:36:49 54° WSW 22:37:35 50° SW
SJ 16-02 4.0 22:42:39 10° NNE 22:44:33 12° NE 22:46:26 10° E
Cosmos 1674 3.0 22:48:20 61° NNE 22:48:20 61° NNE 22:51:32 10° N
Meteor 2-15 Rocket 4.4 22:43:12 10° N 22:49:22 84° E 22:50:55 53° SSE
Helios 1B rocket 4.3 22:47:29 10° NE 22:50:09 21° E 22:50:09 21° E
COSMOS 2455 3.1 22:52:49 33° SW 22:55:31 63° NW 23:01:31 10° NNE
USA 215 3.3 22:52:57 24° ESE 22:57:13 75° NE 23:03:46 10° NW
Cosmos 883 Rocket 4.5 22:51:21 10° NNW 22:57:27 69° W 22:58:57 51° SSW
Cosmos 2219 4.4 22:54:12 10° N 22:59:24 35° NE 23:02:18 22° ESE
Helios 1A 3.0 23:01:35 77° NE 23:01:35 77° NE 23:05:42 10° N
STARLINK-1205 4.4 22:57:59 10° NW 23:02:01 49° NNE 23:03:07 38° ENE
Cosmos 2297 Rocket 3.6 22:58:35 10° N 23:03:38 32° NE 23:07:00 18° ESE
Lacrosse 4 Rocket 4.4 23:05:11 10° NNE 23:06:50 12° NE 23:08:28 10° ENE
STARLINK-1218 4.3 23:02:58 10° NW 23:07:02 52° NNE 23:07:55 43° ENE
ALOS 2 3.1 23:07:47 49° W 23:07:47 49° W 23:11:56 10° NNW
Cosmos 1726 3.9 23:04:47 10° NNW 23:07:20 25° WNW 23:07:20 25° WNW
STARLINK-1369 4.4 23:11:47 40° NE 23:11:47 40° NE 23:14:18 10° NE
Timation 2 Rocket 3.9 23:04:53 10° NNW 23:11:13 85° ENE 23:12:55 51° SSE
COSMOS 2487 4.4 23:08:49 10° NW 23:10:32 22° WNW 23:10:32 22° WNW
Cosmos 2058 Rocket 3.2 23:07:24 10° N 23:11:50 63° E 23:11:58 62° E
STARLINK-1254 4.2 23:07:56 10° NW 23:12:01 56° NNE 23:12:41 49° ENE
STARLINK-1372 4.3 23:15:07 44° NE 23:15:07 44° NE 23:17:48 10° NE
Meteor 2-5 Rocket 3.6 23:14:12 61° SSW 23:15:13 86° W 23:20:53 10° N
CENTAUR R/B 3.9 23:08:40 10° NW 23:16:06 37° WSW 23:18:17 33° SW
STARLINK-1231 4.0 23:12:53 10° NW 23:17:00 60° NNE 23:17:27 56° ENE
STARLINK-1378 4.2 23:18:28 47° NE 23:18:28 47° NE 23:21:17 10° NE
SL-14 R/B 3.7 23:19:11 57° NE 23:19:11 57° NE 23:22:26 10° NNE
ATLAS 3B R/B 2.8 23:12:47 10° NW 23:19:30 61° WSW 23:21:10 48° S
STARLINK-1379 4.1 23:21:51 51° NE 23:21:51 51° NE 23:24:48 10° NE
SeaSat 1 4.2 23:17:14 10° N 23:21:22 27° NW 23:24:21 16° W
Cosmos 1606 Rocket 4.0 23:17:36 10° NNW 23:21:36 49° W 23:21:36 49° W
STARLINK-1232 3.9 23:17:52 10° NW 23:22:00 65° NNE 23:22:15 63° NE
STARLINK-1329 4.0 23:23:14 53° NE 23:23:14 53° NE 23:26:16 10° NE
Meteor 2-21 4.4 23:20:59 54° S 23:22:31 90° WNW 23:28:45 10° N
STARLINK-1362 4.0 23:26:40 56° NNE 23:26:40 56° NNE 23:29:51 10° NE
STARLINK-1208 3.8 23:22:49 10° NW 23:26:58 70° NNE 23:27:00 70° NE
Cosmos 1656 4.2 23:27:53 40° SE 23:28:32 42° ESE 23:33:49 10° NE
ATLAS CENTAUR R/B 3.3 23:27:07 10° NNW 23:29:21 27° NE 23:33:18 10° ESE
STARLINK-1373 3.9 23:30:05 58° N 23:30:05 58° N 23:33:25 10° NE
RESURS DK-1 3.1 23:29:48 44° WNW 23:30:06 45° WNW 23:34:06 10° NNE
STARLINK-1365 3.9 23:31:12 59° N 23:31:12 59° N 23:34:40 10° NE
STARLINK-1271 3.7 23:27:50 10° NW 23:31:49 73° N 23:31:49 73° N
STARLINK-1390 3.9 23:33:34 59° N 23:33:34 59° N 23:37:02 10° NE
Cosmos 1697 Rocket 4.0 23:32:47 25° ESE 23:33:38 26° ESE 23:38:12 10° NE
Cosmos 2084 4.1 23:33:36 46° W 23:34:22 52° NW 23:38:45 10° NNE
Cosmos 1626 2.6 23:36:00 56° NNW 23:36:00 56° NNW 23:39:07 10° N
BREEZE-M R/B 3.4 23:31:45 22° WSW 23:36:24 88° NNW 23:40:13 10° ENE
STARLINK-1154 3.7 23:32:48 10° NW 23:36:35 71° NNW 23:36:35 71° NNW
Okean 1-7 Rocket 3.7 23:37:39 63° W 23:37:49 64° W 23:42:20 10° N
ATLAS CENTAUR R/B 3.7 23:35:42 12° W 23:38:25 20° NW 23:41:28 10° N
Cosmos 2227 Rocket 2.8 23:35:10 10° NNW 23:40:43 51° ENE 23:43:30 28° ESE
STARLINK-1197 3.8 23:37:45 10° NW 23:41:21 65° NW 23:41:21 65° NW
CZ-4 R/B 3.6 23:38:38 10° NNE 23:43:25 89° ESE 23:43:50 75° S
STARLINK-1198 3.9 23:42:44 10° NW 23:46:08 58° WNW 23:46:08 58° WNW
Cosmos 1602 Rocket 3.9 23:47:23 51° E 23:47:31 51° E 23:51:43 10° NNE
SL-08 ROCKET BODY 4.4 23:46:46 50° SSE 23:48:15 69° E 23:54:04 10° NNE
Meteor 2-21 Rocket 4.5 23:50:06 48° SW 23:51:47 70° W 23:58:00 10° N
STARLINK-1199 4.1 23:47:44 10° WNW 23:50:55 51° WNW 23:50:55 51° WNW
